Starlink 32170

operational
NORAD ID: 60591 Int'l Des: 2024-150 Owner: SPXS Country: US Constellation: starlink
LEOCIRCULAR

Über Starlink 32170

Beschreibung wird geladen...

Live-Position

3D-Globus wird geladen...

Nächste Überflüge

Höhenverlauf

Altitude vs Time

uPlot chart will show altitude changes over time

Zweizeiliger Elementsatz

1 60591U 24150J 25308.65473191 .00003867 00000-0 14276-3 0 9994
2 60591 53.1585 168.1055 0000889 77.1782 282.9318 15.30169682 68810
Epoch: 4. Nov. 2025 • Age: 6 hours

Aktueller Status

Höhe 494.2 km
Geschwindigkeit 7.62 km/s
Subsatellitenpunkt -52.59°S, 56.23°E
Startdatum 20. Aug. 2024
Alter 1.2 years
Typ internet

Technische Details

Klassifizierung Payload
Masse 730.00 kg
Trockenmasse 700.00 kg
Gesamtmasse 730.00 kg
Länge 0.30 m
Durchmesser 4.10 m
Spannweite 29.00 m
Form Box + pan
Hersteller SPXS
Bus-Typ Starlink V2M
Phasenstatus In Orbit
Besitzer/Staat SPXS/US

Große Konstellationen

Loading constellations...